GFSSW_sfc_thetae_000.txt.gz
Theta_e
318 318 318 318 319 319 318 318 319 320 320 321 322 322 321 322 321 316 310 314 318 334 331 328 319 317 313 309 312 306 298 295 297 293 295 295 294 299 303 302 303 304 303 304 305
316 316 317 317 317 318 317 317 317 319 320 321 321 321 321 321 315 309 320 332 334 339 315 313 310 311 305 305 306 303 297 298 301 297 296 296 297 300 301 301 300 301 304 305 305
315 315 315 316 316 316 316 316 316 317 319 319 319 319 320 319 309 308 333 332 336 338 317 314 311 309 302 303 303 302 300 302 303 300 299 298 296 300 300 297 300 299 302 303 303
315 315 315 315 315 315 315 315 315 316 317 317 318 318 320 314 294 309 343 342 338 328 315 310 307 302 299 300 303 299 304 303 303 303 298 298 300 301 300 301 305 303 304 303 303
314 314 314 314 314 314 315 314 315 315 315 316 317 318 315 303 304 316 341 340 328 318 313 310 305 302 299 301 303 301 302 302 302 299 300 301 299 300 301 304 305 303 304 303 302
313 313 313 313 313 313 314 314 314 314 314 315 317 318 306 296 309 313 319 326 322 315 312 311 308 308 303 302 302 304 301 301 299 297 298 299 298 300 302 305 303 302 302 302 304
312 312 312 312 312 312 313 313 312 313 314 316 317 316 306 298 308 317 322 316 318 316 311 312 311 308 305 302 304 301 298 300 299 298 297 299 296 298 302 303 301 301 301 303 304
312 312 312 311 311 311 311 312 312 313 315 317 318 313 299 308 309 306 307 311 315 317 313 313 311 308 306 306 303 298 295 292 297 299 300 298 292 299 302 301 299 300 301 302 303
312 312 311 311 311 311 311 311 312 313 320 320 312 305 297 311 310 310 309 308 313 314 313 316 308 304 302 298 296 296 292 293 296 299 298 296 294 299 301 301 299 299 300 302 302
312 312 312 311 311 311 311 310 310 312 319 319 315 298 298 298 307 311 311 313 310 310 308 306 301 298 295 293 289 291 292 294 294 297 296 294 294 297 301 301 300 299 300 301 302
312 312 311 311 310 310 306 299 299 302 307 299 297 298 302 308 309 309 314 312 310 305 299 300 296 293 295 297 298 297 294 294 297 299 296 295 295 299 299 299 298 298 299 300 302
312 312 312 311 310 310 301 294 298 297 293 303 303 304 307 307 302 305 313 305 303 298 300 297 294 298 300 299 297 295 293 292 296 298 295 295 295 296 298 299 299 298 298 300 301
312 312 311 311 310 299 297 299 301 298 293 300 303 303 304 306 301 302 309 306 301 298 297 295 298 302 300 297 296 294 292 292 293 296 295 292 291 293 297 299 300 298 299 300 301
312 311 311 310 298 297 294 300 300 298 290 294 299 302 304 305 300 307 310 307 301 299 298 297 301 300 297 297 297 291 298 297 295 292 287 293 283 291 294 296 299 297 297 299 300
312 312 311 308 296 295 297 301 300 297 277 294 299 307 303 301 301 302 308 305 300 300 299 298 297 297 296 298 298 296 299 296 295 290 287 289 284 289 294 295 296 298 297 299 300
312 312 310 300 296 298 301 300 298 289 280 292 299 298 297 299 300 301 303 306 305 299 298 300 302 300 300 301 300 301 295 293 291 288 281 288 287 286 290 295 297 299 298 299 300
311 311 308 302 293 299 299 296 288 282 293 291 293 297 297 295 297 299 298 297 295 291 292 296 296 299 302 297 296 294 289 283 281 280 282 289 287 289 296 298 300 301 299 299 301
309 310 308 303 301 300 295 290 281 290 290 296 294 295 293 296 296 296 295 294 297 296 292 291 290 297 300 298 295 291 290 284 279 278 282 290 286 292 298 302 304 303 301 300 300
307 304 304 303 302 299 290 283 286 289 294 293 293 291 291 295 295 295 294 295 296 297 294 290 291 298 300 300 299 292 288 291 286 286 283 286 292 299 302 303 302 299 299 299 300
301 300 301 304 304 294 285 285 289 296 296 295 289 291 289 291 292 293 293 297 296 299 299 294 289 297 299 299 297 296 296 287 285 280 279 284 288 290 296 299 302 300 298 299 300
299 293 302 305 302 291 280 283 289 298 297 294 292 290 291 291 293 291 292 297 300 298 300 295 293 292 297 295 293 292 291 291 288 286 281 278 285 296 299 303 304 301 299 299 301
297 287 301 303 288 288 283 286 293 293 298 295 294 293 291 292 291 292 293 296 301 300 295 296 292 289 294 298 301 297 294 294 287 285 287 285 288 300 303 306 307 305 300 300 302
292 292 300 298 284 284 286 288 289 290 294 293 292 294 294 292 289 293 294 299 300 300 295 296 289 285 287 296 299 296 298 295 293 291 289 287 288 301 305 305 307 304 300 300 301
287 284 290 293 292 286 284 285 285 291 291 293 292 294 292 291 292 291 294 298 299 300 309 303 291 290 288 289 297 294 298 298 294 288 290 291 294 299 303 304 305 302 300 300 301
288 286 290 284 287 286 284 284 285 284 291 292 290 292 290 287 289 289 292 294 298 303 300 296 289 291 292 295 298 296 297 298 294 294 292 294 295 300 301 305 305 302 300 299 300
286 287 290 286 289 288 287 283 284 287 286 288 288 292 290 288 289 288 290 291 291 292 294 295 290 291 290 295 295 294 297 299 299 296 296 297 295 303 306 309 308 303 300 301 301
292 295 292 287 288 286 286 286 287 288 290 291 290 289 288 291 293 292 292 292 292 290 289 292 293 290 286 295 294 291 295 298 298 299 298 294 299 303 305 307 307 306 302 302 303

GFSSW_sfc_thetae_003.txt.gz
Theta_e
317 317 317 317 318 318 318 318 318 319 319 320 321 321 321 322 321 319 309 316 320 336 336 331 326 321 320 318 320 315 308 303 305 305 307 305 304 306 308 307 308 310 309 310 311
316 316 316 316 317 317 317 317 317 318 319 319 320 320 321 321 316 309 320 330 335 338 326 321 318 319 315 314 315 312 306 306 311 310 308 306 306 307 306 306 306 307 308 309 310
315 315 315 316 316 316 316 316 316 317 318 318 318 318 320 320 310 308 335 334 336 334 320 320 318 316 312 312 312 310 305 309 309 311 309 306 304 307 306 304 308 308 308 309 310
314 314 315 315 315 315 314 315 315 316 316 316 317 318 320 317 296 311 344 338 339 327 319 316 315 311 308 307 310 306 309 310 310 309 305 304 306 304 307 309 310 311 311 310 310
313 313 313 313 314 313 313 313 314 314 314 314 316 318 316 305 302 315 342 340 332 322 315 314 312 311 307 308 308 307 309 308 308 305 305 305 304 305 306 309 310 309 309 309 311
312 312 312 312 312 312 313 313 313 313 313 314 316 318 310 297 310 315 314 322 321 319 316 315 314 314 310 308 308 310 308 306 304 304 304 304 303 305 307 310 308 308 308 309 310
312 312 312 312 312 312 313 313 312 313 313 315 316 315 308 302 310 322 325 321 323 320 314 317 317 314 313 309 311 307 304 304 304 304 304 305 302 303 309 309 308 308 308 309 311
313 313 312 312 312 311 312 312 312 312 314 317 318 315 300 310 313 310 311 312 315 320 318 318 318 314 312 311 308 304 303 300 303 303 303 304 299 308 308 308 307 306 306 308 310
313 312 312 312 311 311 312 312 311 312 316 318 314 310 301 313 309 311 311 307 311 317 319 317 317 312 308 305 302 302 299 300 301 304 302 302 300 307 306 307 307 306 306 307 309
312 312 312 311 311 311 311 310 310 313 319 318 316 304 305 302 307 313 312 311 312 314 312 312 310 307 305 303 295 298 298 299 299 303 302 301 300 306 307 306 306 306 306 307 309
313 312 312 312 311 311 308 303 305 307 312 302 302 300 302 308 311 310 314 310 313 312 306 308 304 301 304 305 304 303 301 300 302 305 302 302 303 305 307 305 305 306 306 308 309
313 312 312 312 312 311 305 299 298 299 296 303 304 307 308 308 302 306 316 308 309 304 306 303 301 306 306 305 302 301 299 299 302 303 302 303 302 305 306 306 307 307 306 308 310
312 312 312 311 311 303 298 300 304 302 296 300 303 303 305 307 302 303 311 309 306 303 304 303 304 305 304 302 300 301 300 300 300 301 302 300 299 302 307 305 306 308 309 309 309
311 312 312 311 302 301 297 303 304 302 293 296 300 303 305 306 301 308 310 309 306 303 304 304 305 303 302 302 303 299 303 302 300 299 295 300 292 300 304 305 305 307 307 308 309
310 312 311 309 302 299 300 305 304 300 282 297 301 309 306 302 304 304 310 308 304 303 304 302 302 302 301 302 304 302 304 302 301 299 297 297 294 298 301 302 306 310 307 308 310
309 310 310 304 304 303 305 304 302 292 283 294 302 300 299 302 302 304 305 310 310 305 304 305 306 306 305 306 305 306 302 299 298 297 292 297 295 296 300 303 307 309 309 308 309
309 309 308 303 298 304 304 299 292 286 295 294 296 299 299 298 299 301 300 299 300 297 298 302 303 305 307 303 303 304 300 293 291 292 290 295 294 298 305 307 307 308 309 308 309
308 308 307 304 302 305 301 293 285 291 292 297 297 299 295 299 299 299 298 296 302 303 299 296 294 302 305 305 302 301 301 294 287 288 292 295 293 298 308 309 311 311 311 309 309
306 306 302 305 305 304 294 286 288 291 296 295 296 295 295 297 298 298 297 297 301 304 297 296 296 303 305 306 306 298 297 302 296 294 292 295 299 305 309 309 310 308 307 307 309
302 300 299 306 305 299 289 286 291 297 298 297 292 296 293 295 295 296 296 300 299 303 307 301 295 302 304 306 304 303 303 295 296 288 287 292 294 297 304 306 309 308 307 307 309
300 293 302 306 303 292 284 286 291 297 299 296 294 295 296 295 296 295 296 299 302 301 305 304 301 297 301 301 300 299 298 298 298 296 291 290 294 307 308 310 313 312 310 308 309
297 287 303 305 287 288 286 289 292 293 297 297 298 297 296 297 296 296 296 299 303 304 299 304 302 296 298 303 307 305 301 302 295 294 296 295 295 308 311 314 315 313 310 310 311
291 291 302 301 283 285 289 289 290 290 292 295 295 297 299 297 295 298 298 302 303 303 303 304 302 295 295 302 305 300 302 303 303 302 296 293 296 309 312 313 314 313 310 309 310
290 285 288 294 293 288 287 286 286 292 291 292 293 297 296 295 297 296 298 300 302 304 310 307 303 298 293 296 302 300 301 302 301 297 297 297 299 306 310 311 312 313 311 310 310
290 286 289 283 286 287 288 288 286 286 292 295 294 294 294 294 295 296 297 298 301 306 306 306 299 300 301 301 302 301 301 302 300 301 297 300 301 306 311 313 315 314 311 309 310
286 288 288 287 287 288 288 286 286 288 289 289 290 293 294 293 294 294 296 297 297 300 303 303 300 301 298 300 300 298 301 302 303 302 303 303 303 312 313 316 314 311 309 308 310
293 296 291 288 287 287 287 288 288 290 291 292 292 292 292 295 299 299 299 299 298 297 298 302 301 297 294 298 298 294 299 300 303 305 304 300 306 311 312 314 316 313 311 311 311

GFSSW_sfc_thetae_006.txt.gz
Theta_e
317 317 317 317 318 318 318 317 318 318 319 319 320 320 321 322 321 321 311 318 321 339 338 331 327 325 325 323 324 322 310 307 309 310 312 317 313 314 314 312 312 314 314 316 319
316 316 316 316 316 316 316 316 317 317 318 319 319 320 321 321 316 311 321 330 336 340 326 324 321 323 320 320 320 315 308 308 313 315 314 316 315 315 310 311 311 312 315 315 317
314 314 315 315 315 315 315 315 315 316 316 317 317 318 320 321 311 310 339 334 338 338 324 325 324 321 316 318 316 314 308 312 313 316 316 314 314 315 311 310 313 312 315 315 316
314 313 313 313 314 314 314 314 314 315 315 315 316 318 320 317 300 319 342 338 338 329 321 321 319 316 314 312 316 310 312 313 315 316 313 312 314 311 311 313 315 315 316 317 316
313 313 313 313 313 313 313 313 314 314 314 314 315 317 316 308 305 318 342 340 331 322 316 316 315 315 310 313 314 311 312 314 316 314 313 312 311 310 312 315 315 315 316 316 317
313 313 313 312 313 313 314 314 313 313 313 314 315 317 311 300 314 315 316 317 317 321 317 317 317 318 314 314 312 314 313 313 314 313 311 309 310 309 313 314 314 314 315 316 316
313 313 312 312 312 312 313 313 312 313 313 314 316 316 308 304 313 319 323 323 320 320 316 318 320 316 316 313 316 314 309 312 311 311 310 310 307 307 314 314 312 313 315 315 316
313 313 312 312 312 312 312 313 312 312 313 315 318 316 304 313 316 314 315 316 322 323 320 321 320 318 315 317 313 309 310 305 311 310 309 308 302 309 314 312 312 313 314 314 316
314 313 312 312 313 312 313 312 312 312 313 318 317 314 303 315 310 314 315 310 312 316 317 320 319 315 314 310 307 308 302 305 307 312 309 308 306 311 314 313 312 314 314 314 315
314 313 312 312 312 312 312 312 312 313 320 320 318 308 309 306 311 313 316 313 312 311 316 315 314 310 310 308 300 303 303 305 304 309 308 307 307 310 312 312 312 314 314 314 314
313 313 313 312 313 312 309 307 307 311 314 305 307 304 306 310 313 311 316 311 311 314 308 313 307 304 308 310 310 307 305 304 307 310 307 308 308 309 312 312 313 314 314 314 315
312 312 313 312 312 312 308 302 303 303 299 308 309 309 310 311 306 309 317 307 307 305 310 309 304 310 311 311 308 307 305 305 308 309 307 307 306 309 311 311 313 314 315 315 316
311 311 312 312 312 309 305 304 308 307 300 302 305 306 308 310 306 308 312 309 306 305 307 305 307 312 310 308 306 306 304 305 304 308 308 306 304 307 310 312 314 315 316 316 316
310 310 311 311 305 308 303 307 309 308 295 299 301 304 307 308 303 311 314 310 308 305 308 308 311 309 308 306 307 303 308 306 305 303 298 306 296 304 308 309 311 314 315 316 316
309 310 310 310 307 304 305 310 309 307 287 303 304 312 308 304 305 305 313 311 305 305 308 306 308 307 305 306 308 304 308 307 306 303 303 302 299 303 306 305 307 310 315 316 317
308 309 309 307 307 309 310 309 307 295 286 298 304 302 302 304 304 307 306 311 311 307 309 308 312 310 309 309 308 309 306 306 305 303 296 301 300 300 304 305 308 311 315 317 316
306 308 308 307 299 310 310 303 292 288 300 297 299 302 302 300 301 304 302 301 301 299 301 305 306 310 311 306 309 307 304 296 295 295 294 302 298 301 307 309 310 312 314 316 317
307 308 307 305 306 308 305 294 287 294 297 302 301 302 299 302 301 302 301 299 304 304 302 299 297 306 309 306 304 305 304 297 290 292 296 301 296 302 308 312 314 316 318 318 316
306 304 306 307 306 304 296 286 289 295 300 299 299 298 299 301 301 301 301 300 302 306 301 300 300 308 309 309 308 304 301 307 300 301 296 299 302 308 310 311 313 315 315 316 316
302 300 301 309 309 299 289 287 292 298 300 301 296 299 297 299 299 300 300 303 302 305 310 305 299 305 308 309 309 307 308 299 300 292 291 296 298 300 304 307 314 315 315 316 316
299 294 303 309 307 292 284 288 293 298 301 298 297 298 299 300 300 300 301 303 305 304 308 307 304 303 306 304 303 304 303 304 304 301 294 293 298 308 307 311 313 318 317 316 317
297 288 305 308 288 288 286 292 294 295 298 297 300 300 300 301 301 301 300 303 306 306 302 308 304 299 301 307 309 307 304 305 298 297 300 299 299 310 312 315 318 319 318 318 318
292 293 306 301 284 285 292 292 295 293 293 295 296 301 303 301 299 302 303 306 306 305 304 307 302 296 298 304 307 303 305 306 306 305 300 296 299 312 313 316 319 320 318 317 318
296 286 294 293 293 291 289 288 288 296 294 294 294 297 299 299 303 301 302 305 306 306 310 310 304 301 296 300 303 301 302 305 305 300 300 300 302 307 310 313 317 320 319 318 318
296 289 292 287 286 290 290 290 288 288 294 296 294 296 299 297 299 299 303 304 305 307 309 310 301 302 302 303 304 303 302 303 302 304 300 302 303 307 311 313 316 321 320 317 316
290 289 290 291 290 290 290 287 288 289 291 291 292 293 298 297 300 298 302 303 302 306 306 310 301 303 301 302 303 301 303 304 304 304 304 305 304 312 314 315 317 320 319 317 316
295 296 291 289 288 287 286 289 289 292 293 295 294 294 294 299 302 304 306 305 305 306 306 306 303 301 297 301 301 297 302 304 305 306 306 302 307 312 312 314 317 320 319 318 318

GFSSW_sfc_thetae_009.txt.gz
Theta_e
316 316 316 317 317 317 317 317 317 317 318 319 319 320 320 321 320 322 314 320 323 339 339 333 330 328 328 323 324 324 312 309 310 310 313 318 316 319 319 316 316 316 316 319 323
315 315 315 315 315 316 316 316 316 316 317 317 318 318 320 320 318 313 324 329 339 341 330 326 323 325 321 320 320 317 311 310 314 315 314 316 316 317 316 315 314 315 318 319 320
314 314 314 314 314 315 315 315 315 315 316 317 317 318 319 320 313 312 340 334 339 338 325 328 326 323 318 320 319 317 311 315 314 315 316 315 315 318 315 312 316 313 316 319 319
314 314 314 314 314 314 314 314 314 315 315 315 315 317 319 318 301 322 339 339 340 327 321 320 321 317 317 315 319 313 316 315 314 315 316 314 317 314 315 315 317 317 316 318 318
314 314 313 314 314 313 313 313 314 314 313 313 315 316 316 310 308 319 342 337 325 320 318 317 317 317 314 316 316 314 314 315 315 316 317 317 314 314 314 317 317 317 317 317 318
314 313 313 313 313 313 314 314 314 314 313 313 315 316 312 301 315 318 323 326 326 321 318 318 318 320 316 315 313 316 315 315 316 315 316 313 314 313 315 316 314 316 317 316 316
315 315 314 313 313 314 314 314 313 313 313 314 315 315 309 305 316 317 316 315 317 318 318 319 319 316 317 312 317 316 311 313 314 314 314 315 310 311 315 317 315 314 315 317 319
315 314 314 314 314 314 314 314 313 314 314 315 316 315 306 315 318 315 317 319 322 323 317 321 320 316 316 318 314 312 312 307 313 314 314 312 305 314 317 316 315 315 316 317 319
314 314 314 314 314 314 313 313 313 314 315 316 316 313 305 318 312 314 316 312 314 317 321 320 320 313 314 310 308 310 304 306 308 315 313 311 307 314 317 316 315 315 316 317 318
312 313 314 314 314 313 312 312 314 312 318 319 315 309 312 307 312 314 316 314 312 312 314 313 314 310 310 308 300 305 306 307 306 312 313 310 309 314 316 315 315 316 317 318 317
311 311 312 313 314 313 311 312 308 310 314 307 307 306 308 312 314 312 315 313 312 310 303 310 307 304 307 310 310 309 308 306 310 312 310 310 310 312 316 315 314 315 316 318 319
310 311 312 312 313 313 312 306 307 307 302 313 313 311 313 312 307 310 317 308 307 303 306 308 305 310 311 311 309 309 307 306 310 312 311 310 309 312 313 313 315 315 316 317 319
309 310 311 311 312 311 309 309 313 311 301 303 307 308 310 312 307 308 312 310 305 303 305 305 308 312 310 309 308 308 306 306 306 310 312 309 306 308 313 314 315 315 317 319 320
308 309 310 311 306 310 308 312 312 311 296 300 304 307 309 310 305 312 314 311 307 303 306 307 312 310 308 308 309 305 310 308 307 306 301 309 298 306 310 310 312 314 316 318 320
308 307 309 309 305 308 309 312 312 309 288 305 306 313 310 306 307 307 313 311 305 305 306 304 308 308 307 308 311 307 311 308 308 305 304 304 301 305 310 307 309 312 315 318 320
308 307 309 307 308 310 313 312 308 295 287 301 307 304 304 305 306 310 307 312 312 306 307 307 313 311 310 312 311 312 308 307 307 305 297 302 302 302 305 306 308 312 315 319 320
309 308 307 308 304 311 310 306 292 288 301 300 302 305 304 302 303 305 303 302 302 299 300 305 306 311 313 309 311 309 305 297 296 297 295 305 301 304 309 309 310 311 315 319 320
309 308 306 306 311 309 305 296 286 294 298 305 304 304 301 304 303 303 302 300 305 305 302 300 298 308 312 310 306 306 305 298 292 294 298 305 298 304 310 311 313 314 318 321 320
307 305 304 306 309 306 297 286 289 295 301 301 303 300 301 304 303 303 303 301 304 307 301 301 301 309 311 312 310 305 302 308 302 303 298 302 305 309 309 311 314 315 318 320 320
303 299 299 305 309 303 289 286 292 298 300 302 297 301 299 301 301 301 302 305 304 307 310 308 301 308 309 311 311 308 310 301 302 294 293 299 301 303 306 308 315 316 318 319 320
300 293 301 306 308 295 283 288 293 298 300 297 297 299 301 302 303 302 302 306 307 306 308 308 307 305 309 306 304 304 303 305 306 302 296 295 299 310 309 311 313 317 320 319 319
296 290 305 309 290 291 286 291 294 295 299 298 298 297 298 302 303 302 302 305 309 309 303 309 307 302 304 310 311 309 305 307 300 299 302 301 302 312 312 312 316 318 320 319 320
295 298 308 306 286 289 293 292 292 294 295 295 295 298 301 299 299 304 304 309 309 308 306 310 305 300 302 306 309 306 306 307 308 307 302 298 300 313 314 313 316 317 320 319 319
293 289 295 297 294 290 291 290 290 296 294 296 296 298 296 297 303 302 304 308 309 308 312 313 308 303 299 303 305 302 304 306 306 301 301 302 304 309 311 312 316 318 321 320 319
297 292 295 287 289 291 291 291 290 289 294 297 294 295 296 296 300 301 305 306 308 309 310 312 305 305 306 307 306 305 304 304 304 304 302 304 305 309 312 313 315 319 321 320 318
292 293 298 293 292 290 291 290 288 290 292 292 292 295 295 296 300 298 302 305 305 307 307 314 305 305 302 305 306 303 305 305 305 305 305 306 306 313 315 316 316 319 320 319 319
303 301 294 289 291 289 288 290 290 292 293 295 295 294 293 297 299 303 306 307 309 306 309 307 306 303 299 303 303 300 304 305 306 306 307 303 309 313 313 314 315 318 319 320 320

GFSSW_sfc_thetae_012.txt.gz
Theta_e
315 315 315 315 315 316 316 316 316 317 317 317 318 318 319 320 319 317 313 317 320 338 338 330 328 329 329 324 324 323 310 307 309 309 311 316 315 320 321 317 317 318 316 319 323
315 315 315 315 315 315 315 315 316 316 316 316 316 317 318 319 314 311 322 333 339 339 324 325 324 326 321 320 319 315 310 310 315 315 312 314 314 316 315 315 316 316 318 320 321
315 315 315 315 315 315 314 315 315 315 315 315 315 316 318 318 310 309 339 338 337 338 321 324 326 324 318 319 317 316 310 314 315 317 316 313 313 316 314 312 315 314 316 318 318
315 315 315 314 314 314 314 314 314 314 314 314 315 317 318 314 298 319 339 340 341 326 319 317 318 317 316 314 318 312 316 316 316 317 314 312 315 314 314 314 318 317 318 318 319
315 314 314 314 314 314 315 314 314 314 314 314 314 316 313 306 306 318 339 337 328 319 315 313 313 317 313 314 316 314 315 316 317 316 315 315 313 314 314 318 318 317 317 317 319
316 316 315 315 315 315 315 314 315 315 314 314 315 315 310 300 313 315 316 325 320 316 313 314 313 315 313 313 313 316 315 315 315 315 315 312 313 314 315 318 316 316 315 317 318
314 316 316 315 315 315 314 314 313 314 314 314 315 313 306 303 315 317 316 317 322 320 314 315 317 314 315 312 317 315 310 312 313 314 312 315 310 311 316 317 316 316 317 317 319
313 313 315 315 315 315 315 314 313 314 314 315 316 311 301 312 316 312 314 313 315 316 318 321 320 315 312 314 312 309 309 304 311 313 314 313 304 313 317 316 315 316 316 317 319
313 312 313 313 314 315 314 314 314 315 315 317 311 306 299 316 310 314 315 311 315 319 319 318 315 313 311 305 304 307 302 303 307 314 313 311 307 313 316 316 316 317 317 317 319
310 312 312 312 313 313 313 313 314 315 314 316 311 303 309 308 311 314 316 313 310 310 309 310 311 306 307 304 296 301 302 304 305 311 312 309 309 313 315 315 317 317 318 318 319
308 310 312 312 313 312 310 310 307 308 307 305 306 303 308 315 317 311 314 312 310 307 301 306 304 301 305 308 306 306 305 305 309 312 310 309 311 312 315 315 315 317 318 320 321
310 308 309 311 312 311 309 304 307 309 301 309 309 309 310 313 306 308 314 307 305 300 304 302 301 306 308 309 306 305 304 305 308 311 310 309 308 312 314 315 315 315 317 319 321
311 309 308 310 311 308 305 305 313 313 300 302 308 310 311 311 307 307 309 308 304 300 301 299 302 307 307 307 304 305 304 305 305 309 310 308 306 309 313 315 316 317 319 321 321
312 310 308 309 305 309 308 312 315 312 293 296 301 305 309 312 306 313 313 308 305 301 302 301 305 304 306 305 306 302 308 308 307 304 299 308 298 307 310 311 313 314 317 318 321
311 310 309 307 305 303 309 313 312 308 284 303 303 313 309 306 307 308 314 309 303 302 303 300 302 302 305 306 309 306 310 308 308 305 304 303 299 303 310 308 311 312 315 319 321
311 310 309 304 305 307 310 313 309 292 283 299 307 304 303 304 306 309 308 310 309 304 305 303 308 307 307 310 310 311 308 308 307 304 297 302 301 301 305 307 309 311 315 318 320
310 310 309 307 300 309 310 305 290 284 298 298 302 304 302 301 302 304 303 302 300 296 298 302 302 307 310 306 310 308 306 297 295 294 294 303 300 303 310 310 310 310 315 320 321
309 309 308 309 307 307 304 294 283 290 292 304 304 304 300 303 302 302 302 299 304 302 299 297 295 303 309 307 305 307 306 298 291 292 295 305 298 303 311 313 313 313 317 321 320
307 307 306 307 307 305 296 284 285 291 297 296 299 297 300 303 303 301 301 301 303 305 299 298 298 307 308 310 310 306 302 307 300 301 297 300 305 310 311 310 311 313 318 321 321
304 302 302 308 307 302 291 285 290 295 296 296 291 297 294 300 300 301 301 304 303 306 309 305 299 306 307 310 311 309 310 300 301 292 291 297 300 301 306 308 312 316 318 321 322
303 293 302 309 307 295 285 287 291 296 296 292 292 293 294 294 299 300 301 304 306 305 307 308 306 304 307 305 304 305 304 304 304 301 295 294 298 311 310 312 316 317 320 320 320
297 288 305 306 291 290 287 291 294 293 295 293 294 293 293 296 296 297 301 305 309 308 303 307 306 301 303 309 311 309 306 306 299 299 301 300 299 314 315 314 315 318 320 319 320
292 293 305 306 285 286 292 291 293 292 292 291 292 294 296 295 293 300 303 309 309 308 306 308 303 299 301 306 309 306 307 308 309 308 302 296 299 314 314 313 315 318 319 319 320
293 288 298 298 296 292 290 289 289 296 294 293 292 294 294 293 297 296 300 307 309 309 311 312 305 302 299 303 307 304 305 306 305 302 300 301 303 309 311 311 314 318 320 319 319
296 292 295 289 290 290 290 291 288 287 294 295 292 292 291 290 293 296 300 299 305 310 311 311 301 305 305 306 306 305 304 304 304 305 301 304 304 309 312 313 315 319 321 319 318
294 293 296 293 293 290 288 289 288 290 291 291 291 293 294 291 293 293 296 298 299 304 308 313 302 304 302 304 305 303 305 305 305 304 305 305 306 313 316 316 316 319 319 318 318
301 302 296 291 291 289 290 290 290 292 294 294 294 293 291 294 298 300 301 301 301 300 302 309 306 303 298 304 303 300 305 305 306 307 307 303 308 314 313 314 316 319 320 320 320